Погода в Каньякумари

Индия     8°05′25″N   77°32′35″E
темп.,
°C
ветер,
м/с
пор.,
м/с
влажн.,
%
обл.,
%
осадки,
мм/ч
давл.,
гПа
погр.,
м
18 января, пн
пн1823:30+26св1315766 0.0 1011790
02:30+25св1215750 0.0 1010773
05:30+25св1214705 0.0 1010702
08:30+25ссв12146628 0.0 1012577
11:30+27св12136015 0.0 1012702
14:30+27св1214620 0.0 1008792
17:30+27св1214660 0.0 1008789
20:30+27св11146714 0.0 1010950
19 января, вт
вт1923:30+26св13147839 0.0 1011920
02:30+25св12147756 0.0 1009847
05:30+25ссв10127772 0.0 1009698
08:30+25св11137726 0.0 1012765
11:30+26св11127413 0.0 1012836
14:30+27св10126813 0.0 1009783
17:30+28св10116852 0.0 1009751
20:30+28ссв686681 0.0 1011884
20 января, ср
ср2023:30+27ссв8116790 0.0 1011823
02:30+27ссв7966100 0.0 1009697
05:30+26ссв6864100 0.0 1010513
08:30+26св8106995 0.4 1013563
11:30+26ссв8106797 1.0 1013518
14:30+27ссв666599 0.0 1009453
17:30+27ссв225699 0.0 1009382
20:30+28ссв225789 0.0 1012355
21 января, чт
чт2123:30+27ссв346195 0.0 1012427
02:30+27ссв5767100 0.0 1010542
05:30+27с467098 0.0 1010505
08:30+27ссв687561 0.0 1012625
11:30+28св687558 0.0 1012619
14:30+29ссв467424 0.3 1009566
17:30+28з557443 0.8 1008357
20:30+28сз337318 0.0 1011409
22 января, пт
пт2223:30+27ссв337644 0.0 1011394
02:30+27св47787 0.1 1009600
05:30+27св798017 0.3 1010591
08:30+27св8107836 0.1 1012636
11:30+28всв9107618 0.1 1011860
14:30+28в910760 0.0 1008557
17:30+28в910760 0.0 1007463
20:30+28св677715 0.0 1009465